Temp
46 43 43 48 49 51 42 39 39 41 51 46 46 47 51 53 52 51 53 54 55 57 63 65 65 64 63 64 65 67 66 67 66 65 65 66 65 65 66 67 67 67 67 65
44 41 46 49 47 44 42 40 38 44 49 46 45 45 49 50 52 54 56 58 59 59 59 64 64 63 61 65 66 67 68 68 66 68 68 69 68 68 68 68 68 67 67 66
43 45 49 46 43 41 41 39 38 41 45 46 42 43 47 52 52 55 57 59 59 59 60 63 61 61 60 60 62 66 67 68 68 68 66 63 64 63 64 66 67 67 68 68
43 49 46 42 41 43 37 44 43 42 37 33 41 33 44 49 50 51 52 52 54 55 57 57 59 56 57 58 58 62 64 64 66 66 64 63 64 63 66 67 68 68 67 68
39 43 43 40 41 44 40 47 43 42 37 33 39 34 42 44 43 46 51 54 55 54 55 54 56 58 56 57 56 58 60 61 63 64 65 64 63 66 67 67 67 67 68 67
40 43 43 43 46 47 46 42 39 37 36 31 38 34 38 45 47 47 54 53 51 52 53 55 55 56 56 55 55 56 57 59 60 60 61 62 63 64 64 65 65 66 66 67
38 38 40 43 40 41 41 37 29 29 29 28 37 34 41 46 48 49 51 50 51 52 52 53 53 53 53 53 53 56 54 56 58 58 58 59 60 63 64 65 65 65 65 65
33 31 40 44 42 38 39 39 29 21 24 27 33 31 40 48 53 53 52 52 50 50 51 51 50 51 51 52 52 52 53 53 55 57 58 57 57 59 62 65 66 66 66 66
34 35 39 40 43 45 38 36 43 33 26 29 33 35 44 47 45 45 46 48 48 49 49 49 49 49 49 49 50 50 51 51 52 53 55 57 58 57 58 60 63 66 66 67
38 29 37 39 44 43 41 42 33 35 25 23 26 28 34 41 43 44 45 47 47 46 46 46 46 47 47 47 48 48 49 48 49 51 52 53 55 57 58 58 59 61 64 64
43 37 34 38 38 38 37 37 38 36 33 28 23 28 43 42 44 44 48 49 46 43 43 43 44 44 45 45 45 45 45 46 46 47 47 48 50 53 56 57 58 59 60 62
42 37 31 35 39 41 43 41 40 32 29 31 29 27 48 46 49 48 48 47 45 43 42 41 41 42 41 42 42 42 42 43 43 43 44 45 47 49 51 53 56 57 56 58
43 35 29 31 34 38 37 40 42 43 36 30 25 28 46 47 48 48 44 43 43 42 41 40 39 39 39 39 40 40 40 40 41 40 40 41 43 45 45 47 51 53 54 55
47 36 32 30 33 36 35 39 41 40 31 33 32 33 39 42 42 43 41 41 40 39 39 38 37 36 37 37 38 38 38 39 38 38 38 38 41 41 39 41 44 46 49 50
44 34 34 35 36 35 37 37 37 35 36 32 35 38 43 44 44 42 42 41 39 37 37 36 35 35 35 34 35 36 36 36 35 36 36 37 40 40 39 38 39 40 42 44
44 33 35 31 35 35 35 37 38 37 37 36 38 39 45 45 44 39 38 36 35 34 34 34 34 33 33 32 32 33 32 32 33 33 34 35 37 36 36 37 37 38 38 41
39 34 32 30 33 32 27 32 36 37 40 40 34 39 41 40 37 33 32 33 32 31 31 31 31 30 30 29 31 28 28 29 30 31 32 31 33 30 32 34 36 36 38 40
38 34 32 27 29 23 33 38 42 39 38 38 34 34 37 36 31 30 31 29 28 28 28 28 28 27 27 28 27 26 26 27 27 27 28 27 26 26 28 30 33 35 37 38
42 34 29 26 27 28 31 35 35 35 31 29 31 30 30 29 28 24 28 28 26 26 27 26 26 25 25 24 24 23 23 23 23 24 23 23 23 24 25 26 30 33 34 36
39 41 34 25 18 15 30 34 33 38 27 27 30 27 27 28 25 21 23 24 24 25 25 24 23 23 21 20 21 20 20 20 20 20 20 21 22 22 22 24 27 31 34 34
32 32 30 25 17 23 29 28 32 26 28 25 24 23 24 23 20 21 23 22 23 23 22 21 19 17 18 19 19 17 17 17 18 18 18 19 20 19 21 23 27 29 33 34
32 30 29 25 17 21 20 27 30 23 23 23 20 20 20 21 21 20 19 20 20 18 18 18 15 15 15 17 15 14 14 16 15 15 14 14 15 17 20 20 24 29 32 33
28 29 26 27 23 19 19 18 22 24 21 19 18 18 19 18 16 16 16 17 17 16 15 15 12 12 13 13 13 11 12 13 12 10 10 12 14 17 19 20 24 28 32 33
26 24 23 20 16 16 17 17 18 19 17 16 17 16 16 14 14 13 15 15 14 14 12 11 10 8 8 10 11 9 11 11 9 8 10 12 15 16 19 22 26 29 31 32
17 21 19 14 15 15 16 17 16 15 15 14 14 14 13 14 11 11 12 12 12 12 11 10 8 8 7 8 7 7 10 10 8 10 11 13 15 16 18 23 26 30 29 29
8 16 19 20 16 15 15 14 17 13 11 11 12 11 12 11 10 10 10 10 10 8 8 7 6 6 4 4 5 6 8 8 8 9 12 13 14 16 18 20 27 30 30 29
MSLP
1020.77 1021.22 1020.68 1020.86 1021.16 1021.22 1021.60 1021.71 1021.56 1020.98 1020.26 1020.16 1019.61 1018.85 1018.09 1017.65 1017.69 1017.82 1017.66 1017.12 1016.64 1016.14 1015.11 1014.51 1013.89 1013.60 1013.70 1014.09 1014.30 1014.30 1014.64 1014.23 1014.93 1015.54 1015.90 1016.02 1015.89 1016.21 1016.40 1016.34 1016.46 1016.62 1016.79 1016.98
1021.34 1020.56 1020.83 1020.98 1021.32 1021.65 1021.90 1021.96 1021.62 1021.17 1020.59 1020.31 1019.86 1018.70 1018.25 1017.83 1017.37 1017.32 1017.12 1016.49 1015.98 1015.55 1014.84 1014.14 1013.71 1013.51 1013.49 1013.22 1013.37 1013.59 1013.70 1013.83 1014.00 1014.45 1014.85 1015.05 1015.25 1015.20 1015.31 1015.50 1015.66 1015.83 1015.80 1015.99
1020.65 1020.37 1020.56 1021.11 1021.47 1022.04 1021.93 1021.94 1021.95 1021.60 1021.12 1020.50 1019.90 1018.31 1018.22 1017.00 1016.74 1016.29 1016.14 1015.67 1015.23 1014.73 1014.39 1013.58 1013.53 1013.39 1013.36 1013.32 1013.07 1012.97 1012.94 1013.25 1013.68 1013.89 1014.42 1014.79 1015.14 1015.06 1014.78 1014.72 1014.69 1014.62 1015.02 1015.22
1020.86 1020.41 1020.74 1021.24 1021.23 1021.82 1021.50 1021.51 1021.73 1021.79 1021.89 1021.24 1020.14 1018.05 1017.54 1016.98 1016.06 1015.99 1015.56 1015.25 1014.66 1014.58 1014.03 1013.87 1013.39 1013.43 1013.51 1013.34 1013.02 1012.89 1013.08 1013.26 1013.53 1013.65 1014.00 1014.32 1014.38 1014.40 1014.07 1013.87 1013.85 1013.91 1013.95 1014.04
1019.98 1019.98 1020.49 1020.74 1020.90 1021.35 1021.14 1021.13 1021.32 1021.57 1021.80 1021.82 1020.06 1020.17 1016.68 1016.64 1015.62 1015.50 1015.09 1014.57 1014.25 1013.88 1013.80 1014.09 1014.08 1013.98 1013.95 1013.73 1013.55 1013.49 1013.31 1013.39 1013.58 1013.82 1013.79 1013.79 1013.75 1013.60 1013.49 1013.54 1013.49 1013.35 1013.23 1013.24
1020.11 1020.15 1020.31 1020.02 1020.48 1020.74 1020.81 1021.37 1021.73 1021.87 1022.02 1021.26 1019.90 1020.11 1016.55 1015.62 1014.63 1014.62 1014.22 1014.23 1014.04 1014.32 1014.16 1014.33 1014.50 1014.41 1014.28 1014.10 1013.87 1013.80 1013.78 1013.66 1013.66 1013.87 1013.89 1013.69 1013.42 1013.21 1013.20 1013.03 1012.92 1012.86 1012.69 1012.71
1020.18 1020.23 1020.24 1020.18 1020.49 1020.77 1021.15 1021.80 1021.98 1021.96 1021.94 1020.12 1019.34 1019.49 1015.65 1014.78 1014.35 1014.61 1014.32 1014.69 1014.27 1014.65 1014.68 1014.70 1015.02 1015.23 1015.18 1015.09 1014.89 1014.70 1014.43 1014.21 1014.13 1014.06 1013.99 1013.82 1013.46 1013.09 1012.76 1012.44 1012.21 1012.09 1012.02 1012.03
1019.41 1019.74 1019.86 1019.70 1019.59 1019.92 1020.37 1020.83 1020.97 1021.01 1021.33 1020.36 1019.79 1018.15 1015.40 1014.32 1013.58 1013.36 1013.85 1014.28 1014.81 1015.23 1015.41 1015.78 1016.11 1016.27 1016.13 1016.08 1015.86 1015.55 1015.40 1015.21 1014.82 1014.57 1014.33 1014.02 1013.57 1013.26 1012.71 1012.01 1011.56 1011.20 1011.07 1010.94
1018.39 1018.82 1018.94 1019.06 1019.25 1019.13 1019.92 1020.01 1020.03 1020.70 1020.97 1020.98 1019.40 1017.93 1015.59 1014.45 1014.13 1013.91 1014.15 1014.76 1015.47 1016.04 1016.37 1016.76 1016.91 1017.20 1017.34 1017.09 1016.98 1016.72 1016.36 1016.24 1015.98 1015.46 1014.90 1014.38 1013.89 1013.39 1012.83 1012.12 1011.50 1010.85 1010.39 1010.11
1017.20 1018.36 1018.60 1018.95 1019.05 1019.01 1018.98 1019.44 1020.17 1020.32 1020.39 1019.77 1018.77 1017.98 1016.11 1015.12 1015.11 1014.87 1015.18 1015.69 1016.62 1017.09 1017.36 1017.68 1018.05 1018.28 1018.32 1018.22 1017.98 1017.53 1017.32 1017.16 1016.84 1016.32 1015.74 1015.13 1014.40 1013.57 1012.92 1012.22 1011.59 1010.95 1010.19 1009.74
1016.86 1017.56 1018.72 1018.87 1017.99 1017.76 1018.79 1018.84 1019.50 1019.90 1019.99 1019.39 1018.68 1017.15 1015.39 1014.75 1014.68 1015.49 1015.91 1016.61 1017.66 1018.50 1018.90 1019.14 1019.26 1019.38 1019.24 1019.21 1018.89 1018.57 1018.07 1017.59 1017.35 1017.17 1016.67 1015.84 1015.00 1014.07 1013.06 1012.46 1011.73 1011.08 1010.32 1009.65
1016.53 1017.24 1017.55 1017.57 1017.53 1017.46 1017.54 1017.48 1018.42 1018.66 1019.05 1019.02 1017.96 1016.99 1014.84 1014.59 1015.36 1016.64 1017.29 1017.91 1019.06 1019.64 1020.13 1020.18 1020.22 1020.24 1020.00 1019.94 1019.69 1019.44 1019.09 1018.45 1018.25 1018.09 1017.61 1016.84 1015.98 1015.02 1014.02 1013.07 1012.12 1011.22 1010.60 1009.84
1015.36 1016.19 1017.07 1017.54 1018.06 1017.72 1017.30 1017.41 1017.38 1017.85 1018.35 1018.45 1018.16 1016.56 1015.29 1015.14 1016.68 1017.81 1019.00 1020.10 1020.51 1020.71 1021.05 1021.29 1021.27 1021.45 1021.48 1021.12 1020.62 1020.25 1019.80 1019.47 1019.01 1018.62 1018.01 1017.28 1016.59 1015.79 1015.27 1014.15 1012.97 1011.92 1010.99 1010.12
1014.26 1014.83 1015.16 1015.40 1015.49 1016.02 1016.77 1016.66 1016.98 1017.36 1017.75 1017.36 1016.71 1016.12 1015.61 1016.72 1017.47 1019.14 1020.43 1020.67 1021.54 1021.91 1022.17 1022.21 1022.22 1022.37 1022.53 1022.29 1021.86 1021.25 1021.15 1020.45 1019.63 1019.09 1018.54 1017.73 1016.98 1016.49 1015.93 1015.00 1013.80 1012.73 1011.61 1010.54
1013.71 1014.33 1015.26 1015.27 1015.17 1015.13 1015.43 1015.87 1016.34 1016.66 1016.98 1016.89 1016.18 1016.12 1016.01 1016.69 1017.58 1019.52 1020.85 1021.30 1022.10 1022.28 1022.32 1022.79 1023.03 1023.20 1023.26 1023.28 1022.65 1022.26 1021.85 1021.31 1020.50 1019.55 1019.06 1018.42 1017.59 1017.09 1016.22 1015.36 1014.49 1013.44 1012.34 1010.98
1013.33 1013.82 1014.61 1015.21 1015.13 1015.14 1015.52 1015.41 1015.46 1015.71 1016.24 1016.86 1016.48 1015.98 1016.01 1017.47 1018.40 1020.17 1021.39 1022.20 1023.54 1024.02 1024.18 1024.14 1024.42 1024.48 1024.49 1024.36 1023.73 1023.12 1022.78 1021.95 1021.09 1020.14 1019.42 1018.82 1018.21 1017.46 1016.69 1015.59 1014.71 1013.66 1012.64 1011.30
1012.85 1013.65 1014.19 1014.88 1015.41 1015.75 1015.73 1015.14 1014.95 1015.40 1015.64 1016.00 1016.56 1016.71 1017.63 1018.92 1020.06 1022.02 1023.24 1023.75 1025.28 1025.20 1025.18 1025.22 1025.42 1025.38 1025.25 1024.76 1024.30 1023.85 1023.25 1022.47 1021.58 1020.73 1020.08 1019.34 1018.68 1018.11 1016.98 1015.84 1014.86 1013.69 1012.63 1011.47
1011.97 1013.27 1014.14 1015.12 1015.79 1015.34 1013.76 1013.50 1013.80 1014.94 1015.84 1016.69 1017.49 1018.19 1018.80 1020.03 1022.04 1023.53 1024.98 1025.73 1026.09 1025.97 1025.95 1026.03 1026.27 1026.16 1025.80 1025.40 1025.00 1024.54 1023.97 1023.11 1022.20 1021.42 1020.74 1019.99 1019.26 1018.57 1017.48 1016.21 1014.84 1013.49 1012.29 1011.49
1011.39 1012.67 1013.44 1014.71 1015.24 1015.44 1014.40 1014.34 1014.72 1015.42 1017.16 1018.19 1018.81 1019.85 1020.90 1022.18 1023.62 1025.62 1026.35 1026.62 1026.86 1026.93 1026.95 1027.10 1027.21 1027.05 1026.44 1025.99 1025.51 1024.88 1024.06 1023.35 1022.77 1022.03 1021.52 1020.80 1019.99 1018.69 1017.52 1016.21 1014.71 1013.50 1012.24 1011.21
1011.71 1012.15 1013.19 1015.02 1015.91 1015.96 1015.08 1014.97 1015.32 1015.31 1018.05 1019.65 1020.36 1021.63 1022.43 1023.63 1025.20 1026.19 1027.11 1027.37 1027.43 1027.61 1028.06 1028.06 1027.78 1027.46 1027.05 1026.57 1026.06 1025.32 1024.57 1023.99 1023.43 1022.87 1022.06 1021.28 1020.31 1019.03 1017.76 1016.40 1014.86 1013.17 1011.94 1010.74
1011.96 1012.89 1013.56 1015.51 1016.93 1016.99 1016.45 1016.70 1016.73 1018.21 1020.44 1021.21 1022.39 1023.42 1023.99 1024.80 1026.00 1026.91 1027.54 1027.99 1028.28 1028.53 1028.57 1028.60 1028.60 1028.34 1027.96 1027.36 1026.79 1026.07 1025.50 1024.85 1024.35 1023.56 1022.69 1021.54 1020.30 1019.09 1017.90 1016.11 1014.58 1012.92 1011.28 1010.13
1012.07 1013.29 1014.56 1016.69 1018.57 1019.19 1019.19 1018.79 1019.58 1021.08 1022.21 1023.07 1024.11 1024.82 1025.53 1026.33 1027.15 1027.85 1028.40 1028.65 1028.91 1029.15 1029.24 1029.33 1029.24 1028.87 1028.42 1027.93 1027.27 1026.64 1025.98 1025.38 1024.55 1023.64 1022.71 1021.63 1020.38 1019.15 1017.57 1016.03 1014.06 1012.52 1010.87 1009.43
1013.88 1014.14 1015.47 1018.01 1019.65 1020.82 1021.76 1022.10 1022.41 1022.63 1023.48 1024.88 1025.57 1026.37 1026.90 1027.55 1028.35 1028.86 1029.20 1029.42 1029.60 1029.71 1029.77 1029.79 1029.65 1029.27 1028.78 1028.39 1027.87 1027.31 1026.60 1025.75 1024.91 1023.95 1022.61 1021.40 1020.21 1018.69 1017.08 1015.47 1013.49 1011.85 1010.46 1009.16
1015.61 1016.05 1017.52 1019.72 1021.84 1022.75 1023.77 1024.23 1024.59 1024.98 1025.54 1026.51 1027.11 1027.62 1027.97 1028.54 1029.21 1029.67 1029.76 1029.99 1030.17 1030.36 1030.42 1030.50 1030.37 1030.08 1029.69 1029.26 1028.72 1028.16 1027.04 1026.12 1025.11 1023.74 1022.27 1020.94 1019.71 1018.15 1016.55 1015.02 1013.27 1011.54 1010.14 1008.87
1018.35 1018.64 1020.31 1022.52 1023.77 1024.52 1025.11 1025.59 1026.31 1026.94 1027.40 1027.94 1028.46 1028.77 1029.17 1029.40 1029.84 1030.21 1030.42 1030.71 1030.98 1031.25 1031.41 1031.50 1031.28 1030.70 1030.20 1029.60 1028.74 1028.07 1027.00 1026.15 1024.76 1023.60 1022.22 1020.82 1019.58 1018.18 1016.25 1014.50 1012.85 1011.15 1010.71 1009.83
1021.06 1021.52 1022.26 1022.90 1022.80 1023.91 1025.22 1026.77 1027.47 1028.12 1028.78 1029.16 1029.51 1030.02 1030.37 1030.57 1030.88 1031.18 1031.38 1031.60 1031.82 1031.97 1032.11 1032.01 1031.65 1031.24 1030.67 1029.72 1028.85 1028.28 1027.53 1026.76 1024.86 1023.53 1022.04 1021.21 1020.03 1018.49 1016.76 1014.91 1012.73 1011.88 1011.33 1010.73
Wind_Speed
3 5 14 12 10 9 3 4 6 2 6 3 9 14 12 9 5 8 9 9 9 11 12 11 9 9 9 7 10 13 11 13 8 7 8 9 9 6 7 7 10 11 11 11
3 15 8 5 5 5 7 10 8 7 8 4 8 13 10 6 7 8 11 14 14 11 11 14 10 8 8 13 14 13 14 12 10 9 8 8 7 8 7 8 10 11 14 13
16 4 15 10 6 6 9 12 4 12 5 7 5 17 11 11 8 9 10 14 13 17 16 15 8 7 7 8 9 12 14 11 9 10 4 3 2 3 4 8 10 12 14 14
13 15 7 8 12 9 15 7 6 6 0 7 3 13 13 10 15 9 10 9 12 11 8 6 5 3 5 5 4 3 5 5 5 6 6 10 10 11 10 11 9 10 13 15
7 11 17 12 6 9 7 6 8 8 5 4 15 7 14 5 9 6 8 11 11 9 7 5 6 6 5 6 6 6 4 4 5 5 7 8 10 10 8 8 11 12 11 13
6 2 6 8 9 13 3 2 1 2 2 11 10 7 12 13 11 5 11 7 6 5 8 7 5 4 6 7 8 8 8 6 7 4 6 8 10 10 9 10 9 9 9 9
4 5 2 2 6 3 4 4 3 5 7 10 6 9 18 7 7 9 8 6 8 7 6 7 9 8 8 10 11 9 8 8 7 7 6 6 8 10 13 12 10 11 9 8
14 8 13 6 7 8 11 12 8 7 6 5 1 9 11 10 12 8 6 9 5 5 6 9 9 10 11 13 14 14 14 13 13 12 12 8 6 4 7 10 10 10 10 11
12 14 3 1 4 8 5 13 8 6 3 5 5 8 9 9 2 3 8 9 8 7 9 11 11 11 11 13 13 14 15 15 15 14 12 12 10 9 8 10 10 9 11 10
6 1 5 6 5 3 6 7 4 7 5 5 3 5 8 6 6 4 6 7 7 8 11 11 11 11 10 10 10 12 13 13 13 16 15 13 13 12 11 9 10 11 11 10
2 5 3 8 14 16 6 8 4 3 4 6 2 6 7 5 5 8 6 8 10 8 8 8 9 8 9 9 11 12 13 13 14 16 16 16 16 15 13 11 10 10 11 11
13 3 6 13 1 4 9 13 15 8 8 3 1 6 8 2 4 5 8 10 8 9 9 9 10 10 12 12 12 12 13 13 13 13 14 15 15 16 16 15 15 13 12 11
15 7 4 4 2 2 10 13 13 14 3 7 5 6 0 8 9 10 10 8 9 10 11 10 11 12 11 12 12 13 13 14 14 14 14 13 14 15 17 18 17 16 15 13
23 5 8 11 6 8 10 16 17 14 7 9 10 2 4 12 13 9 6 8 7 9 10 9 10 11 11 11 12 12 12 12 14 13 13 13 16 17 16 18 18 17 15 14
14 13 9 5 4 4 13 19 17 13 8 6 4 10 3 14 16 8 6 8 8 10 13 13 12 12 12 13 14 12 13 14 14 13 13 14 15 16 16 18 19 17 17 14
11 6 10 5 4 4 5 17 20 24 18 18 5 6 10 7 9 9 9 11 7 9 10 11 11 11 11 12 13 12 14 16 15 14 13 14 15 17 16 16 19 19 18 16
14 8 8 12 9 6 3 15 20 17 15 16 14 5 8 7 12 8 7 8 4 7 9 10 10 11 12 12 12 14 15 15 14 14 14 14 15 17 16 17 17 17 16 16
14 9 5 4 8 9 4 7 14 16 7 5 7 4 4 11 13 12 8 6 6 9 11 10 10 12 12 12 12 13 13 13 14 14 14 16 17 17 17 17 16 16 14 14
11 7 4 6 7 5 3 6 9 10 6 1 10 8 10 14 11 5 6 7 7 9 9 10 10 12 12 14 15 15 14 14 15 14 16 17 18 19 19 18 17 16 15 14
4 7 4 4 6 10 6 4 4 2 3 4 7 7 8 10 5 4 4 7 9 9 9 10 13 13 13 14 15 15 15 15 15 17 18 17 18 18 19 19 18 15 14 15
6 5 9 5 3 6 2 4 5 8 4 6 5 6 4 4 3 4 7 7 7 9 11 11 11 11 12 13 14 15 15 15 16 16 18 18 18 18 18 19 17 17 15 14
7 8 4 4 3 8 7 3 5 6 6 9 9 8 9 8 7 7 7 8 9 10 12 13 11 12 12 15 15 16 15 17 16 17 17 17 18 16 15 18 17 17 15 14
3 3 7 2 3 5 8 8 7 4 9 5 8 8 6 6 6 6 6 7 9 11 11 12 12 12 12 13 14 15 16 16 17 16 16 16 17 16 16 16 17 14 13 11
2 4 5 5 3 4 6 9 10 10 12 10 8 7 8 6 5 5 5 7 8 10 10 10 10 10 10 11 12 11 14 15 16 16 16 16 16 16 16 13 13 11 10 10
0 3 7 5 5 5 3 7 8 10 10 9 9 8 7 6 6 6 6 7 7 8 8 7 7 8 10 11 11 11 13 14 14 14 14 15 13 15 15 14 12 7 7 13
2 3 5 5 8 3 6 9 8 9 8 7 7 7 7 6 6 5 4 5 6 6 7 6 7 8 9 11 12 13 13 13 12 13 12 13 13 13 12 12 10 9 14 22
Wind_Direction
223 199 219 211 222 248 258 235 243 270 267 295 274 264 259 258 270 277 285 276 272 268 264 270 254 232 212 219 213 213 208 212 191 195 208 219 220 214 229 229 224 217 216 210
172 231 210 205 207 205 242 263 267 275 262 244 269 268 265 262 254 237 254 270 267 269 273 264 259 249 221 218 213 216 214 216 203 202 215 215 209 224 217 223 228 218 217 211
223 225 182 182 182 187 228 235 228 251 340 290 287 275 275 264 248 255 260 257 264 257 264 269 273 259 259 246 225 219 220 223 218 212 200 192 257 271 214 223 226 226 224 222
227 219 157 204 215 185 239 186 232 249 291 258 171 286 277 279 265 241 248 263 258 261 279 274 257 54 36 332 277 225 224 220 231 199 200 204 218 229 231 235 235 231 220 224
202 178 201 214 194 175 228 189 216 230 219 258 257 276 275 216 265 248 260 247 260 246 237 103 86 76 43 33 45 47 26 342 303 269 234 221 229 241 243 240 243 237 232 221
236 69 177 209 188 191 107 172 12 50 147 247 244 209 258 265 261 242 247 276 297 132 126 105 98 83 59 32 26 22 23 19 10 339 272 253 252 245 249 246 242 240 238 230
166 199 193 204 121 121 150 133 254 234 217 254 185 198 244 275 289 228 228 206 140 148 107 90 63 38 32 31 24 18 14 5 2 354 337 308 280 272 264 257 249 243 237 231
206 207 183 182 195 179 193 181 193 207 217 254 240 229 254 233 263 236 240 182 149 121 96 69 56 45 41 32 26 23 15 9 4 358 342 327 305 284 283 275 267 256 241 238
196 227 100 241 165 151 174 211 237 279 165 268 205 274 292 257 265 140 145 135 145 97 70 68 56 47 38 34 27 22 17 10 6 359 352 340 331 321 302 293 287 275 255 247
196 154 190 187 134 221 194 153 180 211 237 248 234 247 238 337 267 183 145 134 89 75 67 58 49 41 35 30 24 24 20 12 1 357 352 341 330 326 320 307 295 291 280 255
111 174 184 138 202 183 164 195 166 169 220 236 219 254 224 281 193 174 148 98 92 73 63 57 53 42 34 25 22 16 14 11 5 357 345 340 337 333 330 324 316 307 300 283
179 228 180 200 277 208 212 204 206 220 218 256 161 265 267 231 116 28 70 82 81 74 58 48 38 29 26 17 12 10 5 9 1 351 342 340 338 339 338 333 327 329 318 304
165 199 166 181 291 176 218 208 209 215 108 204 160 247 284 83 51 45 84 55 47 51 44 35 31 24 16 8 5 2 2 359 353 347 343 343 343 344 340 333 329 328 325 320
168 169 207 221 193 134 204 199 213 201 223 198 225 248 225 91 80 85 73 81 58 44 36 33 28 20 9 3 355 357 352 351 350 343 342 343 341 343 336 331 331 328 325 318
180 219 200 209 176 151 189 192 193 203 213 206 223 225 164 158 152 134 121 55 31 29 23 18 11 7 360 355 349 348 351 345 345 338 340 338 332 335 332 331 328 324 318 314
204 225 187 206 225 178 197 207 203 210 221 230 204 211 141 149 102 93 64 71 34 24 11 5 356 359 348 348 339 350 342 338 339 334 336 334 329 332 327 326 325 323 320 316
187 175 164 220 176 128 249 215 202 210 208 206 213 180 160 132 122 104 93 86 48 15 8 359 353 351 342 344 342 342 336 328 333 331 332 333 329 323 321 320 317 316 313 315
186 169 168 167 144 214 229 207 188 196 205 134 90 93 83 116 99 92 65 63 23 8 359 357 349 341 342 337 346 335 332 330 333 330 334 332 327 318 316 314 310 310 309 305
181 162 160 161 191 318 307 187 155 170 199 157 133 120 115 117 113 85 52 39 22 4 357 354 350 340 338 346 339 337 336 338 334 336 333 326 321 316 316 310 309 306 301 299
159 193 149 155 147 194 224 136 27 150 254 166 137 140 149 163 186 134 52 28 16 9 360 353 352 345 345 343 342 338 340 337 337 334 326 319 313 311 308 304 301 300 293 292
178 181 199 149 192 285 5 333 311 125 219 118 107 108 117 130 56 76 37 25 13 9 3 3 357 346 341 340 342 342 337 336 331 323 318 313 311 308 300 299 299 298 294 292
169 171 169 97 108 253 11 321 188 110 79 112 96 82 87 84 70 40 27 12 15 10 4 4 357 351 350 348 345 340 336 333 326 324 316 311 309 304 301 298 297 293 292 293
174 164 157 144 180 56 14 73 46 96 120 97 96 81 83 88 53 35 15 18 10 12 3 2 355 348 348 344 344 337 330 328 324 320 315 311 309 304 303 299 296 293 294 290
64 5 92 126 116 106 98 77 66 72 95 93 84 81 70 72 51 38 20 21 12 10 3 357 347 342 337 338 332 323 324 328 324 319 320 319 316 314 309 305 294 292 296 298
304 57 112 76 119 106 95 101 110 97 91 90 79 75 72 72 57 30 23 18 9 2 355 343 334 335 329 327 329 327 332 330 328 324 325 328 323 318 314 308 302 331 30 13
342 123 166 198 157 110 120 130 121 110 99 86 100 91 69 60 57 33 27 13 2 353 339 329 330 335 330 337 336 329 332 325 335 334 340 336 328 327 326 326 329 346 8 23